Location: Kershaw
(34.5481°N, 80.5823°W)
Time: 03:40:17
(UTC+00:00)

Altair - Pass Details

Date: 11 October 2022
Orbit: 1501 x 1682 km, 47.2° (Epoch: 02 December)

Event Time Altitude Azimuth Distance (km) Brightness Sun altitude
Rises 13:11:58 0° 303° (WNW) 4,845 9.5 20.3°
Reaches altitude 10° 13:15:09 10° 307° (NW) 3,880 9.1 20.9°
Maximum altitude 13:25:02 61° 27° (NNE) 1,853 8.3 22.7°
Drops below altitude 10° 13:35:04 10° 107° (ESE) 3,941 11.4 24.6°
Sets 13:38:18 0° 111° (ESE) 4,925 11.5 25.1°
